Crossville, TN

10:15 AM CST on February 25, 2017 (GMT -0600)
Crossville Memorial-Whitson

Weather History for KCSV - March, 2013

Change the Weather History Date:

Monday, March 18, 2013

  Actual Average Record
Temperature  
Mean Temperature 51 °F 48 °F  
Max Temperature 58 °F 58 °F 81 °F (1982)
Min Temperature 44 °F 37 °F 14 °F (1967)
Degree Days  
Heating Degree Days 14    
Month to date heating degree days 426  
Since 1 July heating degree days 3563  
Cooling Degree Days 0    
Month to date cooling degree days 0  
Year to date cooling degree days 0  
Growing Degree Days 2 (Base 50)    
Moisture  
Dew Point 51 °F    
Average Humidity 80    
Maximum Humidity 93    
Minimum Humidity 67    
Precipitation  
Precipitation 1.11 in 0.16 in 1.11 in (2013)
Month to date precipitation 3.47 2.76  
Year to date precipitation 13.02 11.98  
Sea Level Pressure  
Sea Level Pressure 29.81 in    
Wind  
Wind Speed 8 mph (SSW)    
Max Wind Speed 17 mph    
Max Gust Speed 29 mph    
Visibility 7 miles    
Events Fog , Rain , Thunderstorm    
T = Trace of Precipitation, MM = Missing Value Source: NWS Daily Summary

Daily Weather History Graph

Daily Weather History Graph

Search for Another Location

Airport or City:

Trip Planner

Search our weather history database for the weather conditions in past years. The results will help you decide how hot, cold, wet, or windy it might be!

Date:

Astronomy

Mar. 18, 2013 Rise Set
Actual Time 6:46 AM CDT 6:50 PM CDT
Civil Twilight 6:20 AM CDT 7:16 PM CDT
Nautical Twilight 5:51 AM CDT 7:45 PM CDT
Astronomical Twilight 5:21 AM CDT 8:16 PM CDT
Moon 10:56 AM CDT (3/18) 12:38 AM CDT (3/18)
Length of Visible Light 12h 55m
Length of Day
12h 04m
Waxing Crescent, 41% of the Moon is Illuminated
Mar 18
Waxing Crescent
Mar 19
First Quarter
Mar 27
Full
Apr 2
Last Quarter
Apr 10
New

Hourly Weather History & Observations

Time (CDT) Temp. Dew Point Humidity Pressure Visibility Wind Dir Wind Speed Gust Speed Precip Events Conditions
12:53 AM 57.0 °F 46.0 °F 67% 29.84 in 10.0 mi South 9.2 mph 16.1 mph N/A   Scattered Clouds
1:53 AM 57.0 °F 48.9 °F 74% 29.84 in 10.0 mi South 9.2 mph 20.7 mph N/A   Overcast
2:53 AM 57.9 °F 50.0 °F 75% 29.82 in 10.0 mi South 9.2 mph 20.7 mph N/A   Overcast
3:53 AM 57.0 °F 51.1 °F 81% 29.80 in 10.0 mi South 8.1 mph - N/A   Overcast
4:53 AM 57.0 °F 52.0 °F 83% 29.79 in 10.0 mi South 9.2 mph 19.6 mph N/A   Overcast
6:06 AM 57.2 °F 51.8 °F 82% 29.83 in 10.0 mi South 12.7 mph 25.3 mph N/A   Overcast
6:53 AM 57.0 °F 52.0 °F 83% 29.80 in 10.0 mi South 9.2 mph 25.3 mph N/A   Overcast
7:36 AM 57.2 °F 51.8 °F 82% 29.81 in 10.0 mi South 12.7 mph 21.9 mph N/A   Overcast
7:53 AM 57.9 °F 52.0 °F 81% 29.78 in 10.0 mi South 13.8 mph 24.2 mph N/A   Overcast
8:22 AM 57.2 °F 51.8 °F 82% 29.81 in 9.0 mi South 11.5 mph 23.0 mph 0.00 in Thunderstorm Thunderstorm
8:35 AM 57.2 °F 51.8 °F 82% 29.82 in 8.0 mi South 12.7 mph 25.3 mph 0.00 in Thunderstorm Thunderstorm
8:53 AM 57.0 °F 52.0 °F 83% 29.79 in 9.0 mi South 11.5 mph 20.7 mph 0.00 in Rain , Thunderstorm Light Thunderstorms and Rain
9:35 AM 57.2 °F 53.6 °F 88% 29.81 in 9.0 mi South 10.4 mph 20.7 mph 0.04 in Thunderstorm Overcast
9:50 AM 57.2 °F 53.6 °F 88% 29.82 in 7.0 mi South 10.4 mph 24.2 mph 0.04 in Rain Light Rain
9:53 AM 57.0 °F 54.0 °F 89% 29.79 in 10.0 mi South 10.4 mph 24.2 mph 0.04 in   Overcast
10:03 AM 57.2 °F 53.6 °F 88% 29.82 in 7.0 mi South 9.2 mph 20.7 mph 0.01 in Thunderstorm Overcast
10:53 AM 57.0 °F 54.0 °F 89% 29.79 in 6.0 mi South 9.2 mph 17.3 mph 0.01 in Thunderstorm Overcast
11:19 AM 57.2 °F 53.6 °F 88% 29.81 in 8.0 mi South 9.2 mph - N/A   Overcast
11:53 AM 57.0 °F 54.0 °F 89% 29.78 in 10.0 mi South 6.9 mph - N/A Thunderstorm Overcast
12:10 PM 57.2 °F 53.6 °F 88% 29.80 in 2.5 mi South 12.7 mph 18.4 mph 0.04 in Rain Rain
12:19 PM 57.2 °F 53.6 °F 88% 29.80 in 1.8 mi South 10.4 mph 20.7 mph 0.10 in Rain , Thunderstorm Heavy Rain
12:29 PM 57.2 °F 53.6 °F 88% 29.80 in 3.0 mi Variable 6.9 mph 19.6 mph 0.12 in Rain , Thunderstorm Light Thunderstorms and Rain
12:39 PM 57.2 °F 53.6 °F 88% 29.80 in 1.8 mi South 9.2 mph - 0.20 in Rain , Thunderstorm Thunderstorms and Rain
12:48 PM 57.2 °F 53.6 °F 88% 29.82 in 4.0 mi Variable 6.9 mph - 0.20 in Rain , Thunderstorm Light Rain
12:53 PM 57.0 °F 54.0 °F 89% 29.79 in 7.0 mi NW 5.8 mph - 0.20 in Thunderstorm Overcast
1:02 PM 57.2 °F 53.6 °F 88% 29.82 in 2.5 mi NW 4.6 mph - 0.02 in Rain , Thunderstorm Light Thunderstorms and Rain
1:26 PM 55.4 °F 51.8 °F 88% 29.82 in 3.0 mi NNW 4.6 mph - 0.10 in Rain , Thunderstorm Light Rain
1:29 PM 55.4 °F 51.8 °F 88% 29.83 in 2.0 mi NW 6.9 mph - 0.13 in Rain , Thunderstorm Rain
1:33 PM 55.4 °F 51.8 °F 88% 29.86 in 1.0 mi WNW 9.2 mph - 0.22 in Rain , Thunderstorm Heavy Rain
1:36 PM 53.6 °F 51.8 °F 94% 29.85 in 0.5 mi WNW 8.1 mph - 0.34 in Fog , Rain , Thunderstorm Heavy Thunderstorms and Rain
1:53 PM 51.1 °F 48.9 °F 92% 29.82 in 0.8 mi SE 4.6 mph - 0.61 in Rain , Thunderstorm Thunderstorms and Rain
2:03 PM 51.8 °F 48.2 °F 88% 29.81 in 1.2 mi NNE 3.5 mph - 0.07 in Rain , Thunderstorm Thunderstorms and Rain
2:16 PM 51.8 °F 50.0 °F 94% 29.83 in 2.0 mi Calm Calm - 0.12 in Rain , Thunderstorm Thunderstorms and Rain
2:24 PM 51.8 °F 48.2 °F 88% 29.82 in 3.0 mi SE 4.6 mph - 0.15 in Rain , Thunderstorm Thunderstorms and Rain
2:29 PM 51.8 °F 50.0 °F 94% 29.81 in 3.0 mi ESE 4.6 mph - 0.17 in Rain , Thunderstorm Thunderstorms and Rain
2:43 PM 51.8 °F 50.0 °F 94% 29.80 in 4.0 mi ESE 4.6 mph - 0.19 in Rain Light Rain
2:53 PM 52.0 °F 50.0 °F 93% 29.77 in 4.0 mi SE 8.1 mph - 0.21 in Rain Light Rain
3:53 PM 53.1 °F 51.1 °F 93% 29.76 in 10.0 mi South 5.8 mph - 0.04 in   Mostly Cloudy
4:34 PM 55.4 °F 51.8 °F 88% 29.78 in 10.0 mi SSW 6.9 mph - N/A   Mostly Cloudy
4:53 PM 55.0 °F 52.0 °F 89% 29.75 in 10.0 mi SSW 5.8 mph - N/A   Mostly Cloudy
5:00 PM 55.4 °F 51.8 °F 88% 29.77 in 10.0 mi Variable 5.8 mph - N/A   Mostly Cloudy
5:10 PM 55.4 °F 51.8 °F 88% 29.75 in 10.0 mi Calm Calm - N/A   Overcast
5:20 PM 55.4 °F 51.8 °F 88% 29.78 in 10.0 mi SW 4.6 mph - N/A   Overcast
5:27 PM 55.4 °F 53.6 °F 94% 29.77 in 10.0 mi Variable 3.5 mph - N/A   Mostly Cloudy
5:53 PM 55.9 °F 52.0 °F 87% 29.75 in 10.0 mi Calm Calm - N/A   Clear
6:35 PM 55.4 °F 53.6 °F 94% 29.79 in 10.0 mi Calm Calm - N/A   Mostly Cloudy
6:53 PM 55.0 °F 52.0 °F 89% 29.76 in 10.0 mi Calm Calm - N/A   Mostly Cloudy
7:10 PM 53.6 °F 51.8 °F 94% 29.79 in 10.0 mi Calm Calm - N/A   Mostly Cloudy
7:53 PM 54.0 °F 52.0 °F 93% 29.78 in 10.0 mi WSW 3.5 mph - N/A   Overcast
8:18 PM 53.6 °F 51.8 °F 94% 29.81 in 10.0 mi Calm Calm - N/A   Overcast
8:53 PM 54.0 °F 52.0 °F 93% 29.79 in 10.0 mi Calm Calm - 0.00 in   Overcast
9:07 PM 53.6 °F 51.8 °F 94% 29.81 in 8.0 mi NW 6.9 mph - 0.00 in Rain Light Rain
9:49 PM 51.8 °F 48.2 °F 88% 29.85 in 7.0 mi NW 9.2 mph - 0.00 in   Overcast
9:53 PM 51.1 °F 48.0 °F 89% 29.84 in 7.0 mi NNW 10.4 mph - 0.00 in   Overcast
10:50 PM 50.0 °F 46.4 °F 87% 29.89 in 10.0 mi NW 9.2 mph - N/A   Overcast
10:53 PM 50.0 °F 45.0 °F 83% 29.87 in 10.0 mi NW 6.9 mph - N/A   Overcast
11:53 PM 48.0 °F 43.0 °F 83% 29.91 in 10.0 mi NW 8.1 mph - N/A   Overcast
11:55 PM 48.2 °F 42.8 °F 82% 29.92 in 10.0 mi NW 5.8 mph - N/A   Overcast